Location: Berkeley
(37.8716°N, 122.2727°W)
Time: 14:46:57
(UTC-07:00)

Amateur Radio Satellites - All Passes

Search period start: 28 March 2017 14:16
Search period end: 29 March 2017 14:16
Location: Berkeley, 37.8716°N, 122.2727°W

Satellite Date Start Highest point End Downlink Frequencies (MHz)
Time Altitude Azimuth
DX 1 28 Mar 14:22:08 14:26:28 62° 286° (WNW) 14:30:48 434.975-435.025
VELOX 1 28 Mar 14:54:34 14:56:28 13° 296° (WNW) 14:58:21 145.980
Oscar 19 28 Mar 14:54:46 14:58:44 23° 265° (W) 15:02:43 437.125/150
RS-15 28 Mar 14:57:26 15:08:29 39° 318° (NW) 15:19:52 29.354- 29.394
UKube-1 28 Mar 14:57:58 15:01:54 35° 289° (WNW) 15:05:49 .
ITAMSAT 1 28 Mar 15:06:14 15:11:06 42° 71° (ENE) 15:16:01 435.822/435.867
NO-84 28 Mar 15:15:38 15:17:49 16° 233° (SW) 15:20:07 435.350 FM
Gurwin Techsat 1B 28 Mar 15:27:25 15:31:21 21° 266° (W) 15:35:18 435.225
AO-7 28 Mar 15:40:29 15:48:49 79° 70° (ENE) 15:57:08 .
MOZHAYETS 4 28 Mar 15:52:04 15:55:42 23° 95° (E) 15:59:20
BEESAT 28 Mar 15:54:44 15:59:27 62° 102° (ESE) 16:04:08 436.000
SO-50 28 Mar 15:55:36 15:59:17 23° 311° (NW) 16:02:56 436.795
ITUPSAT 1 28 Mar 16:12:31 16:17:17 87° 283° (WNW) 16:22:03 437.325
ITAMSAT 1 28 Mar 16:46:44 16:50:42 22° 265° (W) 16:54:41 435.822/435.867
O/OREOS (USA 219) 28 Mar 16:47:33 16:51:59 61° 108° (ESE) 16:56:30 437.305
CUBESAT XI-V 28 Mar 16:51:02 16:53:58 16° 93° (E) 16:56:52 437.345
KKS-1 28 Mar 16:53:19 16:56:45 21° 95° (E) 17:00:08 437.445
DOVE 4 28 Mar 16:58:46 17:00:10 11° 61° (ENE) 17:01:34 437.250
CUTE-I 28 Mar 17:15:19 17:17:58 14° 61° (ENE) 17:20:37 437.470
RS-15 28 Mar 17:18:14 17:26:06 18° 351° (N) 17:33:57 29.354- 29.394
STARS 28 Mar 17:23:03 17:26:13 19° 94° (E) 17:29:21 437.465
MOZHAYETS 4 28 Mar 17:28:53 17:32:50 30° 290° (WNW) 17:36:47
XW-2D 28 Mar 17:34:03 17:36:12 15° 68° (ENE) 17:38:20 145.860 - 145.880
BEESAT 28 Mar 17:34:23 17:36:40 13° 297° (WNW) 17:38:57 436.000
KAITUO 1B 28 Mar 17:36:09 17:37:30 12° 67° (ENE) 17:38:51 145.475/437.950
AO-7 28 Mar 17:36:39 17:42:18 20° 267° (W) 17:47:59 .
XW-2B 28 Mar 17:39:43 17:42:10 17° 68° (ENE) 17:44:36 145.730 - 145.750
XW-2C 28 Mar 17:49:25 17:52:23 22° 70° (ENE) 17:55:20 145.795 - 145.815
CUBESAT XI-V 28 Mar 18:27:05 18:31:30 44° 287° (WNW) 18:35:57 437.345
KKS-1 28 Mar 18:29:20 18:33:19 32° 290° (WNW) 18:37:16 437.445
O/OREOS (USA 219) 28 Mar 18:29:37 18:31:50 13° 305° (NW) 18:34:04 437.305
M-CUBED/EXP-1 PRIME 28 Mar 18:32:12 18:34:13 13° 96° (E) 18:36:13 437.505
DOVE 4 28 Mar 18:32:20 18:37:00 79° 257° (WSW) 18:42:02 437.250
YUBILEINY 28 Mar 18:34:16 18:42:29 44° 76° (ENE) 18:50:38 435.215
XW-2F 28 Mar 18:38:41 18:42:28 87° 257° (WSW) 18:46:15 145.980 - 146.000
LilacSat-2 28 Mar 18:44:31 18:48:19 66° 259° (W) 18:52:07 437.200
PCSat 28 Mar 18:46:06 18:51:27 55° 59° (ENE) 18:56:45 145.827
CUTE-I 28 Mar 18:51:57 18:57:19 75° 258° (WSW) 19:02:43 437.470
NUDT-PHONESAT 28 Mar 18:56:56 19:00:37 59° 259° (W) 19:04:19 437.300
STARS 28 Mar 18:58:37 19:02:37 34° 289° (WNW) 19:06:35 437.465
HO-68 28 Mar 18:59:33 19:05:57 37° 65° (ENE) 19:12:22 435.675
CUTE 1.7 + AOD 2 28 Mar 19:00:49 19:03:46 19° 68° (ENE) 19:06:43 437.475
XW-2D 28 Mar 19:06:36 19:10:05 34° 262° (W) 19:13:34 145.860 - 145.880
KAITUO 1B 28 Mar 19:07:34 19:11:08 42° 261° (W) 19:14:41 145.475/437.950
CUBEBUG 2 28 Mar 19:09:47 19:11:54 13° 64° (ENE) 19:14:00 437.445
XW-2B 28 Mar 19:12:45 19:16:06 29° 263° (W) 19:19:29 145.730 - 145.750
XW-2C 28 Mar 19:23:29 19:26:28 22° 265° (W) 19:29:28 145.795 - 145.815
Tancredo 1 28 Mar 19:26:25 19:29:05 25° 132° (SE) 19:31:44 437.200
RS-15 28 Mar 19:35:23 19:45:04 25° 28° (NNE) 19:54:28 29.354- 29.394
ISS 28 Mar 19:37:27 19:40:19 29° 133° (SE) 19:43:13 437.550
AO-85 28 Mar 19:56:31 20:00:08 24° 113° (ESE) 20:03:34 145.980
AAUSAT CUBESAT 2 28 Mar 20:01:01 20:04:29 27° 71° (ENE) 20:07:59 437.432
XW-2A 28 Mar 20:03:11 20:06:33 50° 260° (W) 20:09:55 145.665 - 145.685
M-CUBED/EXP-1 PRIME 28 Mar 20:04:19 20:08:57 64° 290° (WNW) 20:13:32 437.505
UWE-3 28 Mar 20:04:59 20:09:01 30° 71° (ENE) 20:12:59 435.000/436.395/437.385
STRAND 1 28 Mar 20:18:16 20:23:17 54° 100° (E) 20:28:15 437.568
SEEDS 28 Mar 20:23:23 20:27:31 71° 258° (WSW) 20:31:40 437.485
Oscar 11 28 Mar 20:28:38 20:31:59 22° 69° (ENE) 20:35:20 .
PCSat 28 Mar 20:30:43 20:34:21 18° 255° (WSW) 20:37:59 145.827
YUBILEINY 28 Mar 20:31:19 20:39:04 38° 274° (W) 20:46:49 435.215
CUTE 1.7 + AOD 2 28 Mar 20:35:35 20:39:21 32° 263° (W) 20:43:09 437.475
ZACube-1 28 Mar 20:39:46 20:44:01 40° 73° (ENE) 20:48:12 437.345
CUBEBUG 2 28 Mar 20:43:13 20:47:56 65° 259° (W) 20:52:38 437.445
HO-68 28 Mar 20:46:57 20:53:32 40° 261° (W) 21:00:11 435.675
DELFI C3 28 Mar 20:59:30 21:01:19 13° 66° (ENE) 21:03:09 145.870
Tancredo 1 28 Mar 21:02:19 21:05:07 29° 328° (NNW) 21:07:57 437.200
AO-73 28 Mar 21:06:21 21:10:52 73° 76° (ENE) 21:15:18 145.935
ISS 28 Mar 21:13:55 21:16:46 27° 329° (NNW) 21:19:38 437.550
AO-85 28 Mar 21:36:29 21:40:24 30° 307° (NW) 21:44:05 145.980
AAUSAT CUBESAT 2 28 Mar 21:36:50 21:39:55 20° 266° (W) 21:43:01 437.432
UWE-3 28 Mar 21:41:36 21:45:24 25° 265° (W) 21:49:11 435.000/436.395/437.385
RS-15 28 Mar 21:48:03 22:00:21 71° 56° (NE) 22:12:02 29.354- 29.394
STRAND 1 28 Mar 21:58:43 22:01:59 17° 296° (WNW) 22:05:14 437.568
Oscar 11 28 Mar 22:04:14 22:07:57 28° 264° (W) 22:11:41 .
ZACube-1 28 Mar 22:17:25 22:20:24 17° 267° (W) 22:23:23 437.345
BEESAT 3 28 Mar 22:23:37 22:27:31 84° 299° (WNW) 22:31:30 437.485
DELFI C3 28 Mar 22:32:00 22:35:42 42° 261° (W) 22:39:27 145.870
TIGRISAT 28 Mar 22:32:34 22:36:03 23° 95° (E) 22:39:28 435.000
PRISM 28 Mar 22:42:02 22:46:11 68° 102° (ESE) 22:50:20 437.425
UNISAT 6 28 Mar 22:43:12 22:47:10 33° 97° (E) 22:51:02 437.425
BEESAT 2 28 Mar 22:45:08 22:49:01 62° 117° (ESE) 22:52:59 435.950
SO-50 28 Mar 22:47:32 22:51:10 23° 49° (NE) 22:54:47 436.795
FO-29 28 Mar 23:08:19 23:13:37 36° 96° (E) 23:18:28 435.910
ESTCUBE 1 28 Mar 23:10:59 23:14:52 30° 70° (ENE) 23:18:46 437.505/2401.250
LO-87 28 Mar 23:18:19 23:21:53 70° 76° (ENE) 23:25:30 145.935 - 145.965
AIST 2D 28 Mar 23:52:25 23:55:14 23° 96° (E) 23:58:02 435.315
RS-15 29 Mar 00:01:47 00:11:46 32° 257° (WSW) 00:21:26 29.354- 29.394
50 SAT 29 Mar 00:02:03 00:04:07 15° 68° (ENE) 00:06:11 437.505
TIGRISAT 29 Mar 00:09:00 00:12:42 27° 290° (WNW) 00:16:19 435.000
NANOSAT C BR1 29 Mar 00:10:13 00:13:23 20° 95° (E) 00:16:31 145.865
VELOX 1 29 Mar 00:11:28 00:15:35 41° 72° (ENE) 00:19:45 145.980
EO-79 29 Mar 00:16:12 00:19:48 26° 96° (E) 00:23:20 145.935-145.965
UKube-1 29 Mar 00:16:37 00:18:40 13° 64° (ENE) 00:20:43 .
UNISAT 6 29 Mar 00:20:28 00:23:37 20° 293° (WNW) 00:26:42 437.425
BEESAT 2 29 Mar 00:25:16 00:27:11 13° 315° (NW) 00:29:07 435.950
SO-50 29 Mar 00:27:34 00:31:41 36° 246° (WSW) 00:35:48 436.795
SPROUT 29 Mar 00:35:03 00:39:18 66° 76° (ENE) 00:43:36 437.525
POLYITAN 1 29 Mar 00:44:44 00:48:55 59° 101° (E) 00:53:03 437.675
ESTCUBE 1 29 Mar 00:48:09 00:51:39 22° 265° (W) 00:55:11 437.505/2401.250
QB50P2 29 Mar 00:49:28 00:53:43 74° 103° (ESE) 00:57:54 145.880/145.840
FO-29 29 Mar 00:53:45 00:58:29 26° 296° (WNW) 01:02:54 435.910
DUCHIFAT 1 29 Mar 00:57:24 01:01:36 68° 102° (ESE) 01:05:44 145.980
BUGSAT 1 29 Mar 01:03:01 01:06:22 23° 95° (E) 01:09:41 437.445
DX 1 29 Mar 01:15:23 01:19:44 88° 78° (ENE) 01:24:07 434.975-435.025
AIST 2D 29 Mar 01:25:57 01:28:17 17° 290° (WNW) 01:30:37 435.315
Oscar 19 29 Mar 01:29:04 01:32:05 15° 92° (E) 01:35:05 437.125/150
50 SAT 29 Mar 01:34:00 01:36:55 25° 263° (W) 01:39:51 437.505
NANOSAT C BR1 29 Mar 01:45:26 01:49:05 29° 290° (WNW) 01:52:43 145.865
VELOX 1 29 Mar 01:49:29 01:52:12 16° 267° (W) 01:54:57 145.980
UKube-1 29 Mar 01:50:01 01:54:13 52° 259° (W) 01:58:27 .
EO-79 29 Mar 01:52:04 01:55:25 23° 291° (WNW) 01:58:43 145.935-145.965
Tancredo 1 29 Mar 01:54:09 01:56:39 20° 28° (NNE) 01:59:09 437.200
Gurwin Techsat 1B 29 Mar 02:04:58 02:08:50 20° 94° (E) 02:12:39 435.225
ISS 29 Mar 02:06:39 02:09:24 23° 29° (NNE) 02:12:07 437.550
POLYITAN 1 29 Mar 02:22:53 02:24:10 11° 296° (WNW) 02:25:27 437.675
BUGSAT 1 29 Mar 02:38:15 02:41:38 25° 291° (WNW) 02:44:59 437.445
MOZHAYETS 4 29 Mar 02:52:38 02:55:52 19° 67° (ENE) 02:59:06
BEESAT 29 Mar 02:59:06 03:03:48 58° 73° (ENE) 03:08:29 436.000
O/OREOS (USA 219) 29 Mar 02:59:13 03:03:51 87° 72° (ENE) 03:08:27 437.305
Oscar 19 29 Mar 03:06:39 03:11:42 57° 288° (WNW) 03:16:47 437.125/150
ITUPSAT 1 29 Mar 03:17:09 03:21:57 88° 82° (E) 03:26:46 437.325
ITAMSAT 1 29 Mar 03:21:59 03:25:14 17° 93° (E) 03:28:27 435.822/435.867
Tancredo 1 29 Mar 03:29:50 03:32:54 44° 225° (SW) 03:35:58 437.200
ISS 29 Mar 03:42:51 03:45:56 38° 225° (SW) 03:49:02 437.550
Gurwin Techsat 1B 29 Mar 03:43:53 03:48:57 46° 289° (WNW) 03:54:00 435.225
AO-7 29 Mar 03:44:56 03:51:51 28° 96° (E) 03:58:42 .
KKS-1 29 Mar 03:50:14 03:53:04 17° 65° (ENE) 03:55:56 437.445
CUBESAT XI-V 29 Mar 03:53:33 03:55:49 14° 64° (ENE) 03:58:04 437.345
STARS 29 Mar 04:18:41 04:21:09 15° 65° (ENE) 04:23:37 437.465
MOZHAYETS 4 29 Mar 04:28:27 04:32:44 38° 262° (W) 04:37:01
AO-85 29 Mar 04:29:54 04:31:44 13° 46° (NE) 04:33:33 145.980
BEESAT 29 Mar 04:39:41 04:41:54 13° 268° (W) 04:44:06 436.000
ITAMSAT 1 29 Mar 04:59:56 05:04:59 53° 288° (WNW) 05:09:59 435.822/435.867
KKS-1 29 Mar 05:25:01 05:29:15 43° 261° (W) 05:33:32 437.445
CUBESAT XI-V 29 Mar 05:28:10 05:32:40 56° 260° (W) 05:37:13 437.345
AO-7 29 Mar 05:36:52 05:44:57 59° 293° (WNW) 05:53:01 .
STARS 29 Mar 05:52:46 05:57:02 49° 260° (W) 06:01:22 437.465
AO-85 29 Mar 06:08:33 06:12:26 59° 242° (WSW) 06:16:28 145.980
XW-2F 29 Mar 06:15:20 06:15:55 10° 92° (E) 06:16:29 145.980 - 146.000
LilacSat-2 29 Mar 06:20:48 06:22:51 14° 93° (E) 06:24:53 437.200
NUDT-PHONESAT 29 Mar 06:30:37 06:32:31 14° 93° (E) 06:34:24 437.300
NO-84 29 Mar 06:31:42 06:34:34 57° 317° (NW) 06:37:23 435.350 FM
DOVE 4 29 Mar 06:33:05 06:37:56 36° 96° (E) 06:42:38 437.250
XW-2D 29 Mar 06:40:56 06:44:03 25° 96° (E) 06:47:10 145.860 - 145.880
KAITUO 1B 29 Mar 06:41:05 06:43:46 19° 95° (E) 06:46:27 145.475/437.950
BEESAT 3 29 Mar 06:42:14 06:45:51 31° 53° (NE) 06:49:25 437.485
XW-2B 29 Mar 06:46:50 06:50:06 28° 96° (E) 06:53:21 145.730 - 145.750
M-CUBED/EXP-1 PRIME 29 Mar 06:48:39 06:52:19 65° 254° (WSW) 06:56:21 437.505
XW-2C 29 Mar 06:56:56 07:00:29 39° 98° (E) 07:03:59 145.795 - 145.815
BEESAT 2 29 Mar 07:04:51 07:08:06 22° 50° (NE) 07:11:18 435.950
CUTE-I 29 Mar 07:10:54 07:16:07 51° 100° (E) 07:21:16 437.470
JUGNU 29 Mar 07:31:19 07:32:57 11° 172° (S) 07:34:35 437.505
STRAND 1 29 Mar 07:32:11 07:37:16 64° 74° (ENE) 07:42:22 437.568
YUBILEINY 29 Mar 07:32:37 07:41:00 53° 90° (E) 07:49:22 435.215
AO-7 29 Mar 07:33:13 07:35:59 12° 313° (NW) 07:38:45 .
XW-2F 29 Mar 07:46:42 07:50:16 43° 286° (WNW) 07:53:48 145.980 - 146.000
LilacSat-2 29 Mar 07:53:49 07:57:13 33° 287° (WNW) 08:00:36 437.200
NUDT-PHONESAT 29 Mar 08:03:14 08:06:31 32° 288° (WNW) 08:09:48 437.300
SEEDS 29 Mar 08:09:30 08:12:41 21° 95° (E) 08:15:52 437.485
DOVE 4 29 Mar 08:11:01 08:15:23 27° 292° (WNW) 08:19:39 437.250
KAITUO 1B 29 Mar 08:14:45 08:17:44 23° 289° (WNW) 08:20:42 145.475/437.950
XW-2D 29 Mar 08:15:25 08:18:05 19° 291° (WNW) 08:20:44 145.860 - 145.880
HO-68 29 Mar 08:15:54 08:22:44 45° 100° (E) 08:29:32 435.675
BEESAT 3 29 Mar 08:20:13 08:23:15 21° 249° (WSW) 08:26:14 437.485
CUTE 1.7 + AOD 2 29 Mar 08:21:35 08:25:39 45° 99° (E) 08:29:42 437.475
XW-2B 29 Mar 08:21:39 08:24:04 17° 292° (WNW) 08:26:29 145.730 - 145.750
XW-2C 29 Mar 08:32:41 08:34:18 12° 293° (WNW) 08:35:55 145.795 - 145.815
CUBEBUG 2 29 Mar 08:36:30 08:40:17 29° 96° (E) 08:43:56 437.445
BEESAT 2 29 Mar 08:42:17 08:45:53 31° 246° (WSW) 08:49:26 435.950
CUTE-I 29 Mar 08:51:59 08:55:44 20° 296° (WNW) 08:59:27 437.470
AO-73 29 Mar 08:57:40 09:00:00 15° 92° (E) 09:02:18 145.935
XW-2A 29 Mar 08:59:36 09:02:44 35° 286° (WNW) 09:05:48 145.665 - 145.685
STRAND 1 29 Mar 09:14:22 09:16:51 13° 269° (W) 09:19:18 437.568
FO-29 29 Mar 09:18:33 09:23:36 20° 61° (ENE) 09:28:26 435.910
JUGNU 29 Mar 09:18:40 09:21:03 13° 183° (S) 09:23:27 437.505
AAUSAT CUBESAT 2 29 Mar 09:19:15 09:23:24 67° 100° (E) 09:27:32 437.432
PCSat 29 Mar 09:25:36 09:30:59 74° 115° (ESE) 09:36:25 145.827
PRISM 29 Mar 09:29:32 09:33:15 36° 72° (ENE) 09:37:00 437.425
TIGRISAT 29 Mar 09:29:36 09:32:52 19° 67° (ENE) 09:36:06 435.000
YUBILEINY 29 Mar 09:30:36 09:38:05 31° 289° (WNW) 09:45:37 435.215
UWE-3 29 Mar 09:32:10 09:36:26 79° 102° (ESE) 09:40:36 435.000/436.395/437.385
UNISAT 6 29 Mar 09:40:03 09:43:55 26° 69° (ENE) 09:47:45 437.425
SRMSAT 29 Mar 09:40:51 09:41:51 10° 170° (S) 09:42:51 437.500
SEEDS 29 Mar 09:44:44 09:48:21 28° 289° (WNW) 09:51:57 437.485
Oscar 11 29 Mar 09:52:21 09:56:36 57° 100° (E) 10:00:49 .
CUTE 1.7 + AOD 2 29 Mar 09:58:51 10:01:05 14° 294° (WNW) 10:03:17 437.475
HO-68 29 Mar 10:04:00 10:10:12 33° 296° (WNW) 10:16:25 435.675
ZACube-1 29 Mar 10:05:46 10:09:58 74° 283° (WNW) 10:14:05 437.345
DELFI C3 29 Mar 10:10:55 10:14:14 25° 96° (E) 10:17:35 145.870
CUBEBUG 2 29 Mar 10:13:25 10:16:43 22° 292° (WNW) 10:19:57 437.445
AO-73 29 Mar 10:32:31 10:36:25 39° 287° (WNW) 10:40:14 145.935
FO-29 29 Mar 11:00:00 11:07:51 84° 256° (WSW) 11:15:11 435.910
NANOSAT C BR1 29 Mar 11:01:41 11:03:43 13° 65° (ENE) 11:05:44 145.865
TIGRISAT 29 Mar 11:04:48 11:09:13 41° 262° (W) 11:13:38 435.000
PRISM 29 Mar 11:06:11 11:08:38 15° 266° (W) 11:11:07 437.425
EO-79 29 Mar 11:07:32 11:10:17 17° 67° (ENE) 11:13:03 145.935-145.965
PCSat 29 Mar 11:11:28 11:14:57 17° 313° (NW) 11:18:28 145.827
UNISAT 6 29 Mar 11:16:25 11:20:29 29° 264° (W) 11:24:32 437.425
SRMSAT 29 Mar 11:27:26 11:30:09 13° 180° (S) 11:32:52 437.500
Oscar 11 29 Mar 11:30:35 11:32:12 12° 295° (WNW) 11:33:50 .
POLYITAN 1 29 Mar 11:35:22 11:39:16 34° 71° (ENE) 11:43:09 437.675
QB50P2 29 Mar 11:39:59 11:44:01 42° 73° (ENE) 11:48:04 145.880/145.840
DELFI C3 29 Mar 11:45:49 11:48:53 21° 291° (WNW) 11:51:56 145.870
DUCHIFAT 1 29 Mar 11:47:10 11:51:06 38° 72° (ENE) 11:55:03 145.980
BUGSAT 1 29 Mar 11:51:51 11:54:09 14° 66° (ENE) 11:56:28 437.445
AIST 2D 29 Mar 11:57:14 12:00:44 65° 259° (W) 12:04:14 435.315
RS-15 29 Mar 12:07:52 12:19:14 54° 110° (ESE) 12:30:59 29.354- 29.394
LO-87 29 Mar 12:20:21 12:23:59 70° 284° (WNW) 12:27:35 145.935 - 145.965
SPROUT 29 Mar 12:24:26 12:26:17 13° 91° (E) 12:28:09 437.525
NANOSAT C BR1 29 Mar 12:34:49 12:38:57 50° 260° (W) 12:43:07 145.865
ESTCUBE 1 29 Mar 12:40:59 12:45:31 85° 103° (ESE) 12:50:02 437.505/2401.250
EO-79 29 Mar 12:41:44 12:45:43 38° 262° (W) 12:49:44 145.935-145.965
Oscar 19 29 Mar 12:44:10 12:47:48 20° 65° (ENE) 12:51:26 437.125/150
FO-29 29 Mar 12:49:36 12:53:29 14° 271° (W) 12:57:19 435.910
50 SAT 29 Mar 12:59:50 13:02:30 20° 95° (E) 13:05:10 437.505
SO-50 29 Mar 13:03:46 13:04:07 10° 107° (ESE) 13:04:28 436.795
DX 1 29 Mar 13:06:20 13:09:15 17° 94° (E) 13:12:10 434.975-435.025
NO-84 29 Mar 13:06:31 13:09:20 30° 40° (NE) 13:12:22 435.350 FM
POLYITAN 1 29 Mar 13:12:09 13:15:06 18° 266° (W) 13:18:04 437.675
QB50P2 29 Mar 13:17:34 13:19:59 15° 267° (W) 13:22:24 145.880/145.840
SRMSAT 29 Mar 13:17:41 13:18:26 10° 191° (S) 13:19:11 437.500
Gurwin Techsat 1B 29 Mar 13:24:09 13:28:36 28° 67° (ENE) 13:33:03 435.225
DUCHIFAT 1 29 Mar 13:24:16 13:26:53 16° 267° (W) 13:29:33 145.980
BUGSAT 1 29 Mar 13:25:02 13:29:06 45° 261° (W) 13:33:12 437.445
UKube-1 29 Mar 13:38:58 13:42:42 28° 97° (E) 13:46:24 .
VELOX 1 29 Mar 13:39:05 13:43:33 76° 284° (WNW) 13:47:59 145.980
SPROUT 29 Mar 13:58:19 14:02:27 48° 286° (WNW) 14:06:33 437.525
